Wind_Speed
39 36 35 35 33 30 29 27 25 22 21 20 19 19 20 19 18 17 16 13 13 12 12 12 13 12 12 11 11 12 12 12 14 16 15 14 15 16 16 16 17 18 20
39 37 37 35 33 32 31 29 26 24 24 23 20 19 21 21 19 19 18 17 17 16 15 15 15 14 15 15 14 14 14 14 17 18 20 21 21 20 21 20 20 22 25
38 39 39 38 36 34 32 30 27 26 25 25 23 22 22 22 20 20 20 18 18 18 17 18 17 16 17 16 15 16 17 17 18 20 23 21 22 21 22 23 22 22 24
39 38 37 38 38 37 34 31 30 29 27 26 26 25 24 23 23 22 22 21 20 20 19 20 19 20 20 19 19 19 19 19 20 22 24 23 22 21 21 24 23 21 23
38 40 38 37 37 36 34 33 32 29 28 27 27 26 25 25 25 25 24 23 22 21 21 21 22 23 24 23 21 20 19 20 20 21 22 22 23 21 20 23 29 29 26
37 39 38 36 36 36 35 34 32 32 30 27 28 28 28 28 28 30 27 25 24 24 23 23 24 24 26 30 31 30 28 22 23 24 26 25 24 25 26 27 29 31 27
36 37 37 36 35 36 36 35 33 33 30 29 28 29 30 30 30 32 33 30 26 26 26 25 26 26 26 25 25 27 28 30 33 33 31 30 31 27 28 28 30 31 32
34 34 35 36 35 34 34 34 33 32 31 30 29 30 30 31 32 35 35 32 30 30 28 28 28 29 28 26 25 25 25 25 26 27 27 29 28 26 24 26 28 30 32
35 37 38 37 35 34 33 33 32 30 29 30 29 29 31 31 32 35 35 29 30 33 33 33 33 32 32 31 30 31 31 31 30 32 35 37 36 33 29 28 25 24 23
38 39 35 34 34 34 33 32 31 30 30 28 28 29 30 30 30 34 35 29 29 30 30 31 35 37 34 33 32 31 30 28 27 27 27 26 24 23 21 23 23 22 21
33 33 32 33 33 31 30 29 30 29 27 28 27 28 29 29 29 31 34 31 30 28 29 28 28 30 31 33 38 34 31 26 25 25 25 23 20 18 19 19 21 22 22
29 30 30 30 31 30 29 28 27 27 26 24 25 25 26 27 29 29 35 35 32 29 28 26 24 25 25 27 27 30 30 29 26 24 23 22 22 21 20 20 19 20 26
26 27 28 29 29 26 27 26 26 25 24 25 25 24 24 24 25 30 33 33 35 34 27 25 23 20 17 21 24 25 25 21 21 23 23 23 21 21 22 25 23 18 20
25 25 25 25 24 23 23 24 24 25 26 25 24 23 23 23 23 22 24 29 31 31 35 30 26 23 22 22 20 20 21 21 23 22 24 24 18 19 20 16 13 13 17
21 22 21 20 22 20 20 18 21 21 22 23 22 21 21 21 22 21 20 18 19 24 23 20 21 22 22 21 21 23 22 20 20 23 23 24 22 15 10 9 10 13 12
20 19 19 19 19 18 19 11 12 12 13 18 19 19 20 19 9 16 21 21 13 15 15 20 18 17 17 17 17 15 16 18 22 19 18 13 12 10 11 11 11 9 8
19 20 18 17 16 15 11 11 10 10 20 22 25 22 19 12 16 16 15 16 19 20 18 17 17 17 15 12 12 13 13 12 14 14 12 12 11 11 11 12 9 7 8
10 20 6 9 16 16 16 15 9 4 2 8 23 29 30 30 23 20 16 16 14 18 15 16 14 14 12 11 10 10 9 10 12 12 14 13 13 12 12 10 9 9 8
12 19 2 4 8 15 6 5 6 1 5 9 12 11 17 19 22 23 21 17 17 16 15 13 13 15 12 10 10 10 11 13 14 13 14 13 13 12 11 11 10 7 6
7 5 4 2 10 5 5 5 4 10 11 12 16 19 7 5 7 12 17 19 16 11 11 12 12 12 11 11 10 10 12 11 12 12 13 12 11 12 12 12 11 8 10
8 8 7 2 8 14 12 10 2 7 10 22 25 12 12 11 12 10 9 7 7 5 6 6 7 6 7 8 9 10 11 12 12 12 11 11 11 12 10 10 10 12 12
11 8 5 2 0 5 4 7 13 15 15 15 11 6 12 7 10 11 11 8 5 5 4 4 3 2 1 0 4 8 10 11 11 10 10 10 10 11 11 12 13 12 11
13 13 10 6 5 5 6 12 13 12 9 6 4 6 8 7 8 9 10 9 8 7 5 4 4 2 2 2 4 5 7 8 8 8 9 10 10 10 11 11 12 12 12
9 11 10 11 11 9 6 10 7 3 4 1 3 4 3 3 4 6 8 8 9 9 6 5 4 3 1 2 4 7 8 13 11 10 11 11 11 11 12 12 12 11 11
12 10 11 12 10 10 9 11 12 11 11 12 8 6 5 4 4 4 5 7 9 9 8 7 7 6 5 4 4 5 9 10 13 12 13 12 13 12 13 13 13 13 13
24 21 18 17 16 14 14 15 16 14 13 12 13 14 12 12 9 7 7 9 11 13 13 12 12 11 8 6 5 5 7 6 5 6 8 10 13 15 12 14 14 14 14
Wind_Direction
203 204 207 211 214 217 220 224 225 223 221 221 221 221 220 219 218 219 224 228 225 227 229 230 231 235 239 242 242 248 252 256 267 275 276 282 274 280 278 271 272 268 267
202 201 204 208 210 214 218 221 221 220 219 221 218 220 220 222 222 222 224 227 228 231 233 235 236 234 234 243 247 248 255 257 262 272 277 280 277 276 276 277 274 273 273
201 203 205 207 210 212 215 217 218 218 218 220 219 218 221 222 222 224 226 227 231 232 232 233 235 237 237 240 240 248 248 252 255 263 276 281 281 283 282 282 279 281 280
197 202 204 203 206 209 213 213 215 216 217 218 218 220 223 224 225 228 230 231 233 235 234 234 234 236 240 240 242 245 250 258 262 262 270 277 279 285 282 284 286 286 287
196 200 203 204 204 206 207 209 212 214 217 217 218 220 223 225 225 225 227 231 233 235 238 239 238 239 241 240 244 247 249 250 258 264 270 276 279 282 285 292 294 292 289
198 200 201 201 201 202 203 206 207 211 215 215 218 219 221 226 229 228 227 231 234 236 238 242 244 246 248 249 250 252 251 255 257 265 274 277 281 279 281 283 290 295 297
200 200 198 199 201 201 201 202 205 208 211 213 216 218 221 224 228 231 232 231 236 237 238 240 245 247 247 251 259 265 267 263 257 256 264 264 273 277 284 286 285 286 285
198 198 199 196 200 202 202 201 203 207 209 211 215 218 221 226 228 231 233 233 237 241 242 242 243 248 248 249 255 258 259 261 265 266 258 267 270 278 279 282 287 289 287
198 197 198 197 196 199 203 203 203 205 208 213 217 218 221 227 230 234 233 231 239 242 244 245 246 248 250 251 253 258 261 262 267 268 268 271 276 279 278 280 280 279 282
200 201 197 196 196 197 199 201 201 204 210 213 218 221 224 228 230 232 231 228 235 241 245 247 248 248 250 252 252 254 260 265 271 275 275 278 280 278 273 269 269 274 281
199 199 197 197 198 197 195 197 199 202 209 212 216 221 225 228 231 235 233 223 231 237 242 247 249 252 254 255 252 251 257 267 270 272 274 276 278 276 276 272 266 272 271
197 197 192 194 198 198 196 198 200 202 207 210 216 223 227 230 232 233 235 231 227 232 240 246 250 251 251 256 258 259 262 265 267 269 270 271 272 273 277 279 276 280 285
192 192 189 190 198 193 193 195 198 201 208 212 215 222 227 228 231 235 236 237 235 229 236 241 245 249 249 255 258 260 263 261 257 257 256 263 267 271 273 277 285 289 289
184 189 186 186 193 199 196 201 205 205 209 216 216 219 221 223 224 224 227 234 236 236 235 239 244 248 250 253 255 258 254 249 251 254 257 270 269 265 275 278 280 285 293
180 185 182 183 185 191 201 202 209 215 215 215 220 218 217 221 224 223 224 219 224 229 225 230 235 236 242 244 247 249 250 250 250 255 259 267 272 271 253 260 271 285 287
170 168 171 174 172 186 187 188 219 226 229 230 224 221 227 228 210 211 227 232 220 220 213 227 224 224 229 234 240 243 244 246 250 253 259 251 248 254 260 268 270 273 292
102 123 131 137 157 161 152 165 191 212 240 246 250 234 232 233 219 228 231 239 237 229 227 230 234 235 241 240 247 247 238 233 243 238 241 248 252 260 259 259 257 267 260
105 102 148 143 141 147 155 157 162 209 10 264 257 243 238 236 231 230 232 234 237 227 225 228 235 239 230 232 233 221 217 226 235 235 241 238 252 252 251 249 249 249 251
37 65 314 153 118 131 157 184 236 206 38 307 263 262 234 233 229 227 231 229 231 223 219 218 224 232 224 215 215 219 227 235 242 244 249 247 248 246 244 250 249 237 244
50 56 67 91 121 75 130 99 306 304 304 259 255 252 240 179 173 195 212 224 227 223 212 212 217 218 216 213 214 220 228 233 237 239 243 242 242 243 244 246 242 217 206
357 5 354 185 137 169 181 154 231 239 242 239 230 211 199 188 174 170 180 194 215 219 208 219 218 219 226 230 238 240 242 247 244 245 242 244 241 242 242 249 246 247 247
343 349 333 321 78 172 175 200 207 218 219 223 219 209 189 208 186 163 156 157 132 112 89 98 120 98 112 273 276 269 266 264 261 256 250 245 243 244 243 244 248 248 237
336 338 332 300 260 240 223 219 227 216 212 227 221 201 205 190 157 149 147 144 135 126 125 113 99 55 8 306 287 276 273 268 269 262 256 253 250 247 242 242 241 244 237
351 338 342 332 340 284 246 228 211 55 350 141 190 221 192 169 158 150 137 128 127 120 123 129 122 114 17 326 316 298 277 253 247 259 258 254 253 252 247 247 252 246 246
43 34 25 21 16 6 31 59 67 62 54 50 51 64 86 109 137 129 116 114 114 105 104 109 107 87 63 41 13 324 294 268 261 258 251 259 264 247 239 248 248 244 246
54 54 51 49 46 49 55 57 60 65 67 67 66 63 64 66 70 91 102 107 106 99 92 85 87 80 71 47 58 50 29 8 324 285 275 262 266 266 261 244 249 252 264
Height
788 795 802 807 814 820 825 830 833 837 839 842 845 847 849 852 855 857 859 861 862 864 866 867 868 869 869 868 869 870 870 870 868 864 863 862 862 861 860 859 857 855 853
778 786 792 800 806 812 817 822 826 830 834 836 839 842 844 846 849 852 854 856 858 860 861 862 864 865 866 866 866 867 866 866 866 862 860 860 858 857 855 853 852 850 846
770 777 784 790 797 803 808 814 820 824 827 830 833 836 838 841 843 846 848 851 852 855 856 857 859 860 861 861 862 862 861 862 861 859 856 855 852 851 849 847 846 844 840
760 768 774 779 786 793 800 806 811 816 819 823 827 830 832 835 838 841 843 845 847 848 851 852 854 854 855 856 857 858 858 857 855 854 851 849 847 845 843 841 838 837 832
749 757 764 771 777 785 791 797 803 808 811 816 820 823 826 829 831 833 836 839 841 843 844 846 848 848 849 850 851 850 851 851 850 847 844 842 840 838 837 835 830 828 825
739 746 754 762 769 775 782 788 794 799 803 808 812 816 818 821 822 825 829 832 835 837 838 839 841 842 842 842 843 844 845 846 845 843 839 836 834 835 832 829 825 822 814
731 739 745 753 760 766 772 779 785 790 795 799 803 808 810 812 815 817 821 826 828 830 831 832 833 834 835 836 836 836 835 836 837 837 833 831 829 830 829 824 821 817 812
725 733 739 744 751 759 765 769 776 782 786 790 794 798 802 803 806 809 813 818 821 822 824 825 827 827 828 829 829 829 829 829 828 826 824 823 823 824 823 820 816 811 806
717 721 728 735 742 750 757 762 767 774 779 782 786 789 792 794 797 800 806 811 813 813 815 817 818 818 818 821 822 821 820 820 820 819 817 816 815 816 816 814 810 807 799
706 711 720 727 734 740 748 755 761 766 770 775 778 781 783 785 788 792 797 802 804 804 806 807 808 808 810 812 813 813 810 812 812 811 809 808 807 806 806 806 804 800 796
703 709 716 722 729 735 742 749 754 759 763 767 770 773 776 778 781 783 786 791 793 795 796 797 798 798 799 801 803 804 803 806 805 804 802 801 801 800 799 798 796 795 792
699 704 710 717 725 731 736 742 748 752 757 760 765 767 768 771 773 775 776 779 784 786 787 789 790 791 792 794 795 795 797 798 799 798 796 795 794 793 792 792 790 788 786
693 699 705 712 720 723 730 736 741 746 748 753 756 759 761 762 765 766 768 771 775 779 781 782 784 785 787 788 789 790 791 793 792 790 789 788 788 787 786 785 784 782 780
689 697 702 708 716 721 726 732 735 737 741 743 746 749 751 754 756 758 760 763 767 770 772 775 778 780 782 782 783 784 783 785 785 784 782 780 781 781 780 779 778 778 775
686 693 697 702 709 716 721 725 729 732 734 737 739 742 744 746 749 752 755 757 760 762 767 769 770 772 773 775 776 777 777 778 778 777 775 775 775 775 775 775 773 772 769
683 686 691 695 703 709 714 721 725 727 730 733 734 736 740 741 742 746 751 755 756 758 761 762 761 764 766 767 768 769 769 770 770 771 770 770 771 770 770 770 768 766 766
683 684 691 694 698 704 710 714 718 722 728 730 735 735 737 739 738 742 746 751 753 754 755 755 757 758 758 760 762 763 763 764 765 766 766 766 766 766 766 764 762 762 763
699 681 701 701 697 702 707 710 712 714 705 716 728 734 732 734 734 738 742 745 748 748 750 751 753 754 755 755 757 758 759 761 761 762 762 761 761 761 759 759 758 759 759
693 681 705 703 698 696 702 705 707 705 702 711 731 733 728 724 726 732 736 741 742 743 744 746 748 750 751 752 753 754 756 757 757 757 757 757 756 756 756 755 754 755 758
705 710 704 699 691 699 704 699 706 705 704 711 722 727 725 720 723 727 732 737 738 739 740 742 744 745 747 748 749 750 752 752 753 754 753 753 753 753 752 751 751 751 755
707 701 698 700 692 695 706 699 703 711 716 724 727 725 724 722 724 726 731 734 735 737 738 740 742 744 745 747 748 748 748 749 749 749 749 750 750 749 749 749 749 750 751
709 707 707 703 698 701 697 700 709 714 717 719 721 722 721 722 723 723 727 732 733 734 736 739 741 742 743 746 748 748 748 749 748 749 749 748 748 747 747 747 746 746 747
712 710 708 706 705 704 706 708 710 712 712 712 716 722 725 724 722 724 728 729 731 732 734 737 741 744 745 746 747 748 749 749 749 749 748 747 746 744 744 743 742 742 741
720 718 714 709 705 705 703 705 707 713 712 711 717 721 722 724 728 730 729 728 728 730 733 736 739 741 744 746 747 746 745 744 744 746 745 744 743 742 742 741 739 738 738
723 724 723 720 718 717 714 712 713 715 716 718 721 723 727 730 733 734 733 732 731 732 734 736 738 740 743 744 745 744 743 741 742 742 742 741 739 738 739 737 734 734 735
729 728 729 729 729 726 723 719 718 718 720 722 725 729 731 733 736 737 736 735 736 737 738 741 741 741 741 742 742 742 741 741 741 740 740 738 736 734 732 732 731 730 729